Regional Weather Roundup
Issued by NWS Lake Charles, LA

Home | Current Version | Previous Version | Text Only | Print | Product List | Glossary On
Versions: 1 2 3 4 5 6 7 8 9 10 11 12 13 14 15 16 17 18 19 20 21 22 23 24 25 26 27 28
000
ASUS44 KLCH 231510
RWRLCH
REGIONAL WEATHER ROUNDUP
NATIONAL WEATHER SERVICE LAKE CHARLES LA
900 AM CST THU FEB 23 2017

Note: "fair" indicates few or no clouds below 12,000 feet with no
significant weather and/or obstructions to visibility.


ACROSS SOUTHEAST TEXAS

CITY           SKY/WX    TMP DP  RH WIND       PRES   REMARKS
BEAUMONT       SUNNY     68  62  81 S9        29.81R
BEAUMONT CITY  FAIR      68  60  76 S7        29.82S
ORANGE         SUNNY     66  65  94 S8        29.84R
JASPER         SUNNY     65  60  85 S8        29.83S
$$

ACROSS CENTRAL LOUISIANA

CITY           SKY/WX    TMP DP  RH WIND       PRES   REMARKS
LEESVILLE      SUNNY     59  59  99 SE6       29.82R
FULLERTON      FAIR      60  59  96 VRB3      29.80R
ALEXANDRIA INT CLOUDY    58  58 100 SE7       29.82R FOG
ESLER FIELD    SUNNY     62  58  86 S6        29.83S
DERIDDER       FAIR      59  58  96 S3        29.85R FOG
OAKDALE        FOG       59  58  96 SE3       29.84R VSB 1
OPELOUSAS      FAIR      64  57  76 MISG      29.84S
$$

ACROSS SOUTHWEST AND SOUTH CENTRAL LOUISIANA

CITY           SKY/WX    TMP DP  RH WIND       PRES   REMARKS
SULPHUR        SUNNY     65  65 100 SE8       29.83R
LAKE CHARLES   MOSUNNY   64  63  96 SE6       29.83R
CHENNAULT INT  FOG       61  61 100 SE3       29.84R VSB 1/4
CAMERON PHI    SUNNY     66  64  94 S9        29.82R FOG
DEQUINCY       PTSUNNY   60  60  98 SE3       29.83R FOG
JENNINGS       CLOUDY    60  60 100 S3        29.84R FOG
LAFAYETTE      SUNNY     68  59  73 SE3       29.84R
NEW IBERIA     SUNNY     65  57  75 SE7       29.85R
ABBEVILLE      FAIR      63  63 100 SE5       29.85R
PATTERSON      SUNNY     67  59  75 SE5       29.86R
SALT POINT       N/A     66  58  75 SE7       29.84R
$$

SELECTED SITES ACROSS THE REGION

CITY           SKY/WX    TMP DP  RH WIND       PRES   REMARKS
HOUSTON BUSH   SUNNY     67  61  81 S6        29.79R
HOUSTON HOBBY  SUNNY     67  62  84 S7        29.79R
GALVESTON      SUNNY     70  65  84 S10       29.81R
COLLEGE STAT   CLOUDY    61  60  97 S12       29.76R FOG
CONROE         SUNNY     63  59  87 S5        29.79R
HUNTSVILLE     SUNNY     66  56  70 S13       29.77R
LUFKIN         SUNNY     60  56  86 S7        29.79R
SHREVEPORT     SUNNY     63  57  81 S9        29.77S
MONROE         SUNNY     62  56  80 S8        29.83R
NATCHEZ MS     SUNNY     64  55  72 SE9       29.84S
BATON ROUGE    SUNNY     66  58  75 E9        29.85R
N.O. INTL ARPT MOSUNNY   67  61  81 E5        29.85R
SLIDELL        SUNNY     65  59  81 CALM      29.85R
$$

MARINE REPORTS

STATION/POSITION TIME  SKY/WX   TEMP    WIND        PRES    VSBY
                                AIR SEA DIR/SP/G
                 (UTC)          (F)     (DEG/KT/KT) (MB)    (MI)
BUOY 30 S HIGH I 1450            66 65  180/  8/  8 1009.5R
WVE H/P(F/S)=  1/ 3

SEA RIM ST PARK  1400            65     180/  7/ 10 1009.8R
PORT ARTHUR      1448               65  170/  6/  9 1009.8R
SABINE PASS N    1448            68 68  160/  8/ 11 1011.0R
TEXAS POINT      NOT AVBL
CALCASIEU PASS   1448            66 65  170/  8/ 10   N/A
LK CHARLES BEACH 1448            60                 1010.5R
MARSH ISLAND     1400            65                   N/A
FRESH WATER LOCK 1448            64 66  120/  5/  7 1011.1R
AMERADA PASS     1448            64 55   90/  5/  6 1010.7R
$$




USA.gov is the U.S. government's official web portal to all federal, state and local government web resources and services.